When you browse on this site, cookies collect data to enhance your experience and personalize the content and advertising you see.
Visit our Privacy Policy to learn more. By continuing to use the site, you agree to this use of cookies and data.
  • en France
  • Liste des pays
  • À 7 jours
  • Température de l'eau
  • Carte satellitaire
  • Carte météo
  • Widgets météo
  • user-avatar
    Se connecter

    Météo par heure à Dinajpur

    Ce jour, 17 Novembre, Samedi

    Heure Température Précipitation Vent Pression Humidité
    00:00 +24°C° 0 mm 2 m/s 756 mmHg 50%
    01:00 +24°C° 0 mm 1 m/s 756 mmHg 52%
    02:00 +23°C° 0 mm 1 m/s 756 mmHg 54%
    03:00 +23°C° 0 mm 1 m/s 756 mmHg 56%
    04:00 +22°C° 0 mm 1 m/s 756 mmHg 58%
    05:00 +22°C° 0 mm 1 m/s 757 mmHg 59%
    06:00 +21°C° 0 mm 1 m/s 756 mmHg 64%
    07:00 +22°C° 0 mm 1 m/s 757 mmHg 61%
    08:00 +24°C° 0 mm 1 m/s 757 mmHg 57%
    09:00 +25°C° 0 mm 2 m/s 757 mmHg 54%
    10:00 +27°C° 0 mm 2 m/s 757 mmHg 47%
    11:00 +28°C° 0 mm 3 m/s 757 mmHg 40%
    12:00 +30°C° 0 mm 4 m/s 757 mmHg 29%
    13:00 +30°C° 0 mm 4 m/s 756 mmHg 28%
    14:00 +32°C° 0 mm 4 m/s 756 mmHg 28%
    15:00 +32°C° 0 mm 4 m/s 755 mmHg 27%
    16:00 +29°C° 0 mm 3 m/s 755 mmHg 31%
    17:00 +27°C° 0 mm 3 m/s 755 mmHg 35%
    18:00 +25°C° 0 mm 2 m/s 756 mmHg 39%
    19:00 +24°C° 0 mm 1 m/s 756 mmHg 40%
    20:00 +24°C° 0 mm 1 m/s 756 mmHg 41%
    21:00 +23°C° 0 mm 1 m/s 757 mmHg 43%
    22:00 +22°C° 0 mm 1 m/s 757 mmHg 44%
    23:00 +22°C° 0 mm 1 m/s 757 mmHg 45%

    Demain, 18 Novembre, Dimanche

    Heure Température Précipitation Vent Pression Humidité
    00:00 +19°C° 0 mm 0 m/s 757 mmHg 47%
    01:00 +19°C° 0 mm 0 m/s 757 mmHg 48%
    02:00 +18°C° 0 mm 0 m/s 757 mmHg 49%
    03:00 +18°C° 0 mm 0 m/s 757 mmHg 51%
    04:00 +18°C° 0 mm 0 m/s 757 mmHg 52%
    05:00 +19°C° 0 mm 1 m/s 758 mmHg 53%
    06:00 +19°C° 0 mm 1 m/s 758 mmHg 55%
    07:00 +20°C° 0 mm 1 m/s 759 mmHg 53%
    08:00 +21°C° 0 mm 2 m/s 759 mmHg 51%
    09:00 +24°C° 0 mm 2 m/s 760 mmHg 48%
    10:00 +25°C° 0 mm 2 m/s 760 mmHg 44%
    11:00 +27°C° 0 mm 2 m/s 759 mmHg 40%
    12:00 +28°C° 0 mm 1 m/s 759 mmHg 36%
    13:00 +29°C° 0 mm 1 m/s 758 mmHg 33%
    14:00 +29°C° 0 mm 1 m/s 758 mmHg 30%
    15:00 +30°C° 0 mm 1 m/s 757 mmHg 28%
    16:00 +28°C° 0 mm 1 m/s 757 mmHg 31%
    17:00 +26°C° 0 mm 1 m/s 757 mmHg 34%
    18:00 +24°C° 0 mm 1 m/s 757 mmHg 38%
    19:00 +24°C° 0 mm 1 m/s 758 mmHg 40%
    20:00 +23°C° 0 mm 2 m/s 758 mmHg 42%
    21:00 +21°C° 0 mm 2 m/s 759 mmHg 45%
    22:00 +21°C° 0 mm 2 m/s 759 mmHg 50%
    23:00 +20°C° 0 mm 2 m/s 758 mmHg 56%

    Après-demain, 19 Novembre, Lundi

    Heure Température Précipitation Vent Pression Humidité
    00:00 +20°C° 0 mm 2 m/s 758 mmHg 62%
    01:00 +19°C° 0 mm 2 m/s 758 mmHg 67%
    02:00 +19°C° 0 mm 2 m/s 758 mmHg 72%
    03:00 +18°C° 0 mm 2 m/s 758 mmHg 77%
    04:00 +18°C° 0 mm 2 m/s 758 mmHg 79%
    05:00 +18°C° 0 mm 2 m/s 759 mmHg 81%
    06:00 +17°C° 0 mm 2 m/s 759 mmHg 82%
    07:00 +19°C° 0 mm 2 m/s 760 mmHg 75%
    08:00 +21°C° 0 mm 3 m/s 760 mmHg 69%
    09:00 +22°C° 0 mm 3 m/s 761 mmHg 62%
    10:00 +25°C° 0 mm 3 m/s 761 mmHg 56%
    11:00 +26°C° 0 mm 2 m/s 760 mmHg 49%
    12:00 +28°C° 0 mm 2 m/s 760 mmHg 43%
    13:00 +28°C° 0 mm 2 m/s 759 mmHg 40%
    14:00 +29°C° 0 mm 1 m/s 758 mmHg 38%
    15:00 +29°C° 0 mm 1 m/s 758 mmHg 35%
    16:00 +28°C° 0 mm 1 m/s 758 mmHg 39%
    17:00 +26°C° 0 mm 1 m/s 758 mmHg 43%
    18:00 +25°C° 0 mm 1 m/s 758 mmHg 47%
    19:00 +24°C° 0 mm 1 m/s 758 mmHg 48%
    20:00 +23°C° 0 mm 1 m/s 759 mmHg 50%
    21:00 +23°C° 0 mm 1 m/s 759 mmHg 52%
    22:00 +22°C° 0 mm 1 m/s 759 mmHg 54%
    23:00 +22°C° 0 mm 1 m/s 759 mmHg 57%

    20 Novembre, Mardi

    Heure Température Précipitation Vent Pression Humidité
    00:00 +20°C° 0 mm 2 m/s 759 mmHg 59%
    01:00 +20°C° 0 mm 2 m/s 759 mmHg 62%
    02:00 +19°C° 0 mm 2 m/s 758 mmHg 65%
    03:00 +19°C° 0 mm 2 m/s 758 mmHg 68%
    04:00 +18°C° 0 mm 2 m/s 758 mmHg 69%
    05:00 +19°C° 0 mm 1 m/s 758 mmHg 71%
    06:00 +19°C° 0 mm 1 m/s 759 mmHg 73%
    07:00 +20°C° 0 mm 1 m/s 759 mmHg 68%
    08:00 +21°C° 0 mm 2 m/s 760 mmHg 63%
    09:00 +23°C° 0 mm 2 m/s 760 mmHg 58%
    10:00 +25°C° 0 mm 1 m/s 760 mmHg 53%
    11:00 +27°C° 0 mm 1 m/s 760 mmHg 48%
    12:00 +26°C° 0 mm 0 m/s 759 mmHg 42%
    13:00 +29°C° 0 mm 1 m/s 758 mmHg 40%
    14:00 +29°C° 0 mm 1 m/s 758 mmHg 37%
    15:00 +29°C° 0 mm 2 m/s 757 mmHg 34%
    16:00 +28°C° 0 mm 2 m/s 757 mmHg 38%
    17:00 +26°C° 0 mm 2 m/s 757 mmHg 42%
    18:00 +25°C° 0 mm 1 m/s 757 mmHg 45%
    19:00 +24°C° 0 mm 1 m/s 758 mmHg 47%
    20:00 +23°C° 0 mm 1 m/s 758 mmHg 49%
    21:00 +23°C° 0 mm 1 m/s 759 mmHg 50%
    22:00 +22°C° 0 mm 1 m/s 759 mmHg 53%
    23:00 +22°C° 0 mm 1 m/s 759 mmHg 55%

    21 Novembre, Mercredi

    Heure Température Précipitation Vent Pression Humidité
    00:00 +21°C° 0 mm 1 m/s 759 mmHg 57%
    01:00 +21°C° 0 mm 1 m/s 758 mmHg 60%
    02:00 +20°C° 0 mm 1 m/s 758 mmHg 63%
    03:00 +20°C° 0 mm 1 m/s 758 mmHg 66%
    04:00 +19°C° 0 mm 1 m/s 758 mmHg 68%
    05:00 +19°C° 0 mm 1 m/s 758 mmHg 71%
    06:00 +19°C° 0 mm 1 m/s 758 mmHg 73%
    07:00 +19°C° 0 mm 2 m/s 759 mmHg 68%
    08:00 +21°C° 0 mm 2 m/s 760 mmHg 63%
    09:00 +23°C° 0 mm 2 m/s 760 mmHg 59%
    10:00 +25°C° 0 mm 2 m/s 760 mmHg 53%
    11:00 +26°C° 0 mm 2 m/s 759 mmHg 48%
    12:00 +28°C° 0 mm 1 m/s 759 mmHg 42%
    13:00 +28°C° 0 mm 1 m/s 758 mmHg 39%
    14:00 +29°C° 0 mm 1 m/s 757 mmHg 37%
    15:00 +29°C° 0 mm 1 m/s 757 mmHg 34%
    16:00 +28°C° 0 mm 1 m/s 757 mmHg 38%
    17:00 +26°C° 0 mm 1 m/s 757 mmHg 42%
    18:00 +24°C° 0 mm 2 m/s 757 mmHg 46%
    19:00 +24°C° 0 mm 2 m/s 758 mmHg 49%
    20:00 +23°C° 0 mm 2 m/s 759 mmHg 52%
    21:00 +21°C° 0 mm 2 m/s 759 mmHg 55%
    22:00 +21°C° 0 mm 2 m/s 759 mmHg 58%
    23:00 +20°C° 0 mm 2 m/s 759 mmHg 61%

    22 Novembre, Jeudi

    Heure Température Précipitation Vent Pression Humidité
    00:00 +20°C° 0 mm 2 m/s 759 mmHg 64%
    01:00 +19°C° 0 mm 2 m/s 758 mmHg 66%
    02:00 +19°C° 0 mm 2 m/s 758 mmHg 68%
    03:00 +18°C° 0 mm 2 m/s 758 mmHg 70%
    04:00 +18°C° 0 mm 2 m/s 758 mmHg 71%
    05:00 +19°C° 0 mm 1 m/s 758 mmHg 72%
    06:00 +19°C° 0 mm 1 m/s 758 mmHg 73%
    07:00 +20°C° 0 mm 1 m/s 759 mmHg 68%
    08:00 +21°C° 0 mm 2 m/s 760 mmHg 62%
    09:00 +23°C° 0 mm 2 m/s 760 mmHg 56%
    10:00 +25°C° 0 mm 2 m/s 760 mmHg 51%
    11:00 +27°C° 0 mm 2 m/s 759 mmHg 45%
    12:00 +28°C° 0 mm 2 m/s 759 mmHg 40%
    13:00 +28°C° 0 mm 2 m/s 758 mmHg 38%
    14:00 +29°C° 0 mm 2 m/s 757 mmHg 37%
    15:00 +29°C° 0 mm 2 m/s 756 mmHg 35%
    16:00 +27°C° 0 mm 2 m/s 757 mmHg 39%
    17:00 +26°C° 0 mm 1 m/s 757 mmHg 42%
    18:00 +24°C° 0 mm 1 m/s 757 mmHg 46%
    19:00 +24°C° 0 mm 1 m/s 758 mmHg 47%
    20:00 +23°C° 0 mm 1 m/s 758 mmHg 49%
    21:00 +22°C° 0 mm 1 m/s 759 mmHg 50%
    22:00 +22°C° 0 mm 1 m/s 758 mmHg 51%
    23:00 +22°C° 0 mm 1 m/s 758 mmHg 52%
    Voir plus